Total_Precipitation_Accumulation
0.04 0.04 0.02 0.02 0.11 0.18 0.21 0.28 0.47 0.25 0.09 0.04 0.00 0.00 0.00 0.00 0.00 0.00 0.00 0.01 0.02 0.01 0.01 0.01 0.01 0.01 0.00 0.00 0.00 0.00 0.01 0.01 0.03
0.08 0.06 0.02 0.01 0.03 0.08 0.17 0.15 0.34 0.39 0.17 0.02 0.00 0.00 0.00 0.00 0.00 0.00 0.00 0.01 0.01 0.00 0.01 0.01 0.01 0.01 0.00 0.00 0.00 0.00 0.01 0.02 0.02
0.18 0.19 0.08 0.04 0.02 0.05 0.18 0.28 0.25 0.26 0.14 0.05 0.04 0.00 0.00 0.00 0.00 0.00 0.00 0.01 0.00 0.00 0.01 0.01 0.01 0.01 0.01 0.00 0.00 0.00 0.01 0.01 0.01
0.10 0.23 0.19 0.12 0.10 0.07 0.15 0.20 0.20 0.20 0.16 0.16 0.04 0.00 0.00 0.00 0.00 0.00 0.00 0.00 0.00 0.00 0.01 0.01 0.01 0.01 0.01 0.00 0.00 0.00 0.00 0.00 0.01
0.10 0.17 0.11 0.14 0.21 0.21 0.19 0.36 0.33 0.30 0.29 0.20 0.02 0.00 0.00 0.00 0.00 0.00 0.00 0.00 0.01 0.00 0.00 0.01 0.02 0.02 0.01 0.00 0.00 0.00 0.00 0.00 0.01
0.04 0.10 0.07 0.07 0.07 0.12 0.12 0.28 0.43 0.51 0.55 0.49 0.08 0.00 0.00 0.00 0.00 0.00 0.00 0.01 0.01 0.01 0.00 0.01 0.02 0.02 0.01 0.00 0.00 0.00 0.00 0.01 0.01
0.03 0.01 0.01 0.05 0.05 0.06 0.11 0.19 0.33 0.55 0.60 0.62 0.34 0.05 0.00 0.00 0.00 0.00 0.00 0.01 0.01 0.01 0.00 0.00 0.02 0.02 0.00 0.00 0.00 0.00 0.00 0.01 0.00
0.00 0.01 0.00 0.01 0.01 0.06 0.18 0.26 0.26 0.34 0.46 0.54 0.42 0.26 0.17 0.03 0.00 0.00 0.00 0.03 0.05 0.01 0.00 0.00 0.01 0.01 0.00 0.00 0.00 0.00 0.00 0.00 0.00
0.00 0.00 0.00 0.01 0.01 0.02 0.04 0.09 0.15 0.26 0.32 0.44 0.32 0.29 0.29 0.25 0.08 0.01 0.00 0.04 0.09 0.02 0.00 0.00 0.01 0.01 0.00 0.00 0.00 0.00 0.00 0.00 0.00
0.00 0.00 0.00 0.00 0.00 0.00 0.00 0.01 0.11 0.31 0.36 0.29 0.31 0.25 0.18 0.23 0.26 0.17 0.02 0.07 0.12 0.06 0.00 0.00 0.00 0.01 0.00 0.01 0.01 0.01 0.00 0.00 0.00
0.00 0.00 0.00 0.00 0.00 0.00 0.00 0.04 0.13 0.26 0.37 0.32 0.30 0.27 0.22 0.18 0.22 0.25 0.18 0.11 0.16 0.11 0.05 0.00 0.01 0.02 0.02 0.01 0.00 0.01 0.00 0.00 0.01
0.00 0.00 0.00 0.00 0.00 0.00 0.00 0.14 0.29 0.45 0.49 0.57 0.51 0.37 0.26 0.22 0.18 0.18 0.21 0.18 0.18 0.19 0.09 0.03 0.03 0.04 0.04 0.02 0.01 0.01 0.02 0.03 0.03
0.00 0.00 0.00 0.00 0.00 0.00 0.00 0.02 0.15 0.24 0.39 0.42 0.54 0.64 0.45 0.23 0.18 0.19 0.20 0.18 0.14 0.21 0.28 0.11 0.03 0.05 0.08 0.06 0.04 0.03 0.06 0.05 0.04
0.00 0.00 0.00 0.00 0.00 0.00 0.00 0.00 0.04 0.13 0.23 0.40 0.35 0.37 0.27 0.21 0.20 0.18 0.18 0.21 0.18 0.15 0.22 0.28 0.21 0.13 0.12 0.13 0.11 0.10 0.07 0.06 0.04
0.00 0.00 0.00 0.00 0.00 0.00 0.00 0.00 0.00 0.02 0.08 0.14 0.16 0.23 0.14 0.17 0.16 0.20 0.20 0.19 0.17 0.31 0.48 0.39 0.37 0.50 0.35 0.28 0.22 0.14 0.08 0.05 0.04
0.02 0.01 0.00 0.00 0.00 0.00 0.00 0.00 0.00 0.00 0.03 0.01 0.04 0.11 0.15 0.11 0.10 0.22 0.23 0.28 0.19 0.32 0.85 0.75 0.74 0.94 0.98 0.91 0.58 0.26 0.15 0.08 0.05
0.35 0.16 0.08 0.03 0.00 0.00 0.00 0.00 0.00 0.00 0.00 0.01 0.02 0.06 0.09 0.10 0.10 0.25 0.43 0.33 0.34 0.41 0.82 1.14 1.23 1.48 1.30 1.57 1.25 0.78 0.41 0.17 0.06
0.29 0.50 0.40 0.18 0.07 0.01 0.01 0.00 0.00 0.00 0.01 0.01 0.01 0.03 0.04 0.05 0.04 0.07 0.29 0.30 0.29 0.32 0.66 0.91 1.06 1.37 1.42 1.62 2.05 1.36 0.92 0.54 0.25
0.11 0.21 0.44 0.62 0.45 0.28 0.09 0.02 0.01 0.01 0.00 0.01 0.01 0.00 0.01 0.02 0.03 0.01 0.07 0.23 0.26 0.29 0.42 0.71 0.84 0.91 0.92 1.09 1.45 1.34 0.90 0.57 0.36
0.08 0.11 0.15 0.30 0.49 0.67 0.68 0.31 0.06 0.03 0.03 0.01 0.01 0.00 0.01 0.02 0.02 0.01 0.01 0.09 0.28 0.43 0.49 0.49 0.64 0.85 0.78 0.64 0.89 0.71 0.59 0.33 0.21